Location: Besigheim
(48.9980°N, 9.1427°E)
Time: 16:22:32
(UTC+00:00)

SL-24 R/B - RUBIN 2 - Pass Details

Date: 22 February 2026
Orbit: 603 x 984 km, 64.6° (Epoch: 8 March)

Event Time Altitude Azimuth Distance (km) Brightness Sun altitude
Exits shadow 04:28:47 - 333° (NNW) 2,144 6.1 -18.8°
Reaches altitude 10° 04:29:55 10° 347° (NNW) 1,982 6.1 -18.7°
Maximum altitude 04:31:00 11° 1° (N) 1,923 6.2 -18.5°
Drops below altitude 10° 04:32:05 10° 15° (NNE) 1,966 6.4 -18.3°
Sets 04:36:15 0° 55° (NE) 2,862 8.0 -17.6°
